Zurück zum Katalog

STARLINK-35206

AktivKommunikationSSO
NORAD 65614·PAYLOAD·🇺🇸 United States

Gestartet Sep 13, 2025 von Cape Canaveral Space Force Station

Loading…

Nächste Überflüge (nächste 24 Stunden)

TLE

AktuellSource: CelesTrak SupGP

Epoche: Sep 15, 2026, 03:52 UTC

1 65614C 25207Y   26258.16159722  .01062700  00000+0  64238-1 0  2581
2 65614  97.2846 320.8012 0001985  77.8757 222.5710 15.10221929    12

Verfolge STARLINK-35206 in Echtzeit mit AllMySat

Download on the App Store